Wind_Speed
6 7 10 13 16 18 21 22 24 26 28 31 33 35 37 38 39 40 40 40 40 40 39 38 37 37 36 35 35 34 33 32 31 31 30 29 29 28
6 7 8 10 13 16 19 21 23 25 26 29 31 34 36 38 38 39 40 42 42 42 42 42 41 40 40 39 38 37 36 35 35 34 33 32 31 30
6 6 7 8 11 13 15 19 22 24 26 28 29 31 33 36 38 39 41 42 43 44 44 44 44 43 43 43 42 41 40 39 38 37 36 36 35 34
6 6 7 8 8 11 13 16 19 22 24 27 28 29 31 33 35 38 39 40 42 43 44 45 46 46 46 45 45 44 44 43 43 42 41 40 39 37
7 7 7 7 8 9 11 14 16 19 21 24 26 28 30 31 34 35 37 38 41 43 45 46 47 48 48 48 48 48 47 46 46 46 45 44 43 41
8 8 8 8 8 9 10 12 14 16 19 21 24 26 27 29 31 33 34 36 39 41 43 45 47 49 49 49 50 50 50 49 49 48 47 47 46 45
9 8 8 8 9 9 10 11 12 13 16 18 20 22 24 25 28 30 31 33 35 37 39 42 43 45 48 49 50 50 51 51 51 51 50 50 49 49
9 9 9 9 9 9 10 10 11 12 13 15 17 20 22 23 25 27 28 30 32 34 36 39 41 43 45 47 48 49 50 51 51 50 51 51 51 51
10 10 10 10 10 10 10 10 11 11 12 13 15 17 19 21 23 24 26 27 29 30 32 35 38 40 42 44 45 48 49 50 51 52 52 51 51 51
11 11 11 11 10 10 11 11 11 12 12 13 14 15 17 18 20 21 23 25 26 28 30 31 34 37 39 40 41 43 45 47 47 49 51 52 52 51
12 12 12 12 12 12 12 12 12 12 13 13 13 14 15 16 18 19 20 22 24 26 28 29 31 33 35 37 39 41 43 45 46 47 48 49 51 53
14 14 14 13 13 13 13 13 13 13 14 14 14 14 14 15 17 18 19 21 22 24 26 27 28 30 31 33 36 38 39 41 42 43 44 45 47 49
15 15 15 15 15 15 15 15 15 15 15 15 15 15 15 15 16 17 19 20 22 23 25 25 26 28 29 30 32 34 36 37 39 40 41 42 43 46
17 17 17 17 17 17 17 17 17 17 17 17 17 17 17 17 18 18 19 20 21 23 24 25 26 27 28 29 30 32 33 34 36 38 40 40 41 43
19 19 19 19 19 19 19 19 18 18 18 18 19 19 19 19 20 20 20 21 22 23 24 25 26 27 28 29 29 31 32 34 35 36 38 40 41 42
21 21 21 21 21 21 21 21 20 20 20 20 20 20 21 21 21 22 22 22 23 24 24 25 26 27 28 29 30 31 32 33 34 36 36 37 39 40
22 22 23 23 23 23 23 23 23 23 23 23 23 23 23 23 23 23 24 24 24 25 25 26 26 26 27 28 29 30 32 33 34 35 36 36 37 38
24 24 24 25 25 25 25 25 25 25 25 25 25 26 26 26 26 26 26 26 26 26 27 28 28 29 29 29 30 30 31 33 34 35 35 35 36 37
26 27 27 27 27 28 28 28 28 28 28 28 28 28 29 29 29 29 29 29 29 29 30 30 30 30 30 30 31 32 32 33 34 35 36 36 36 37
29 29 29 30 30 30 31 31 31 31 31 31 31 31 32 32 32 32 32 32 33 33 33 33 33 33 33 32 31 32 33 34 34 35 36 36 36 36
32 32 32 32 32 33 33 33 33 34 34 34 34 34 34 34 35 35 35 35 36 36 36 36 36 36 36 36 35 34 35 35 35 36 36 37 37 36
34 34 35 35 35 35 35 36 36 36 37 37 37 37 37 37 38 38 39 39 39 39 39 39 39 40 40 39 39 38 38 38 38 38 37 37 38 37
36 36 36 37 37 37 38 38 38 39 39 39 40 40 40 41 41 41 42 42 43 43 43 43 43 44 44 44 43 42 42 42 42 42 41 41 40 39
Wind_Direction
275 261 252 246 243 241 241 240 240 240 241 240 240 239 239 238 238 237 237 237 237 238 238 238 239 239 239 240 242 242 242 242 243 245 246 248 248 250
295 276 263 254 249 246 244 242 242 243 243 242 241 241 241 240 239 240 240 239 239 240 240 240 240 240 240 241 242 243 244 244 245 246 247 248 249 251
308 297 285 271 258 251 250 248 248 248 246 246 244 243 243 243 241 242 243 241 241 241 242 242 242 242 242 242 243 243 244 245 246 247 249 249 250 252
310 304 297 287 275 262 257 255 254 252 250 250 249 247 246 245 244 244 244 243 242 242 243 244 244 244 244 244 244 244 246 247 247 247 249 251 252 253
311 305 299 292 286 277 267 263 260 255 253 252 252 251 250 249 247 247 247 245 244 244 245 245 246 245 245 245 245 246 247 248 248 248 249 251 252 253
316 309 303 296 292 287 278 271 264 259 256 254 253 253 254 253 251 250 249 248 247 247 247 248 247 247 247 247 247 247 247 248 249 249 250 250 252 253
322 314 308 302 298 293 286 278 271 266 262 259 257 255 256 255 253 252 251 251 251 250 250 249 249 249 249 249 249 248 249 248 249 249 250 251 251 252
323 318 313 306 302 297 293 285 278 273 268 265 263 260 259 258 254 254 253 253 253 252 253 252 251 251 250 250 249 248 248 249 249 249 249 251 252 253
321 317 314 310 304 301 299 294 286 282 278 273 270 267 264 261 258 257 256 255 256 256 256 256 255 253 252 252 251 248 248 249 250 250 250 251 252 252
317 315 312 310 304 301 298 297 293 288 285 281 276 270 266 263 262 260 258 257 257 258 259 259 258 256 254 252 251 250 249 250 250 251 253 253 252 252
316 313 309 306 302 299 296 294 294 292 290 288 286 280 274 270 266 264 262 261 260 260 262 262 261 259 258 256 254 253 252 251 251 252 254 254 254 253
312 310 307 304 301 299 296 294 291 290 289 288 288 285 280 276 272 268 266 265 263 263 264 264 262 260 259 258 257 256 255 254 252 252 254 255 255 255
309 307 304 302 300 298 296 294 292 290 288 286 285 283 281 279 277 274 272 271 268 267 268 268 267 263 261 259 259 259 257 257 256 255 256 257 257 257
306 305 303 301 299 297 296 294 292 290 288 287 285 283 282 280 279 278 276 274 273 272 271 270 270 267 264 261 260 261 261 260 259 258 258 258 258 258
304 303 301 300 299 298 296 295 291 290 289 288 286 285 284 282 281 280 279 277 276 276 274 273 271 270 268 265 262 262 263 263 261 260 260 259 258 258
302 301 299 298 297 296 294 293 292 290 289 289 287 286 284 283 282 282 281 280 279 278 278 276 274 273 271 269 266 264 264 264 264 263 263 262 260 258
301 299 298 296 295 294 293 292 291 289 287 287 287 286 285 284 283 283 283 282 282 281 279 278 277 276 275 273 270 267 265 265 265 265 264 263 262 260
301 299 297 296 294 293 292 291 290 289 288 288 287 286 285 285 284 284 283 283 284 283 281 280 280 279 277 275 274 271 269 266 265 265 265 264 263 262
300 298 296 295 293 292 291 290 289 289 288 287 287 286 285 285 284 284 283 283 283 283 282 281 281 280 279 278 276 275 272 270 268 267 266 265 265 264
298 297 296 294 293 292 291 290 289 288 288 287 287 286 285 285 284 283 283 283 283 282 282 281 280 280 279 278 276 275 274 273 271 269 268 267 267 266
298 296 295 294 292 291 290 289 288 287 287 287 287 286 286 285 284 283 283 282 282 282 281 281 280 280 278 277 276 275 274 274 273 271 269 268 267 265
297 296 295 293 292 290 289 288 287 287 287 287 286 286 286 285 285 284 283 283 282 282 281 280 280 279 278 278 276 275 273 273 273 272 271 269 267 265
297 296 295 294 292 291 289 288 287 287 287 287 287 286 286 286 285 284 284 283 282 282 281 280 280 279 278 277 276 276 274 272 271 271 271 270 269 266
Height
5775 5775 5775 5776 5777 5778 5780 5782 5785 5787 5789 5792 5795 5798 5801 5804 5808 5811 5815 5819 5823 5827 5830 5833 5837 5840 5843 5846 5848 5851 5853 5855 5858 5860 5862 5863 5865 5867
5773 5772 5772 5772 5772 5773 5775 5776 5778 5780 5782 5784 5787 5789 5792 5796 5799 5802 5806 5810 5813 5817 5821 5824 5828 5831 5835 5838 5840 5843 5846 5848 5850 5853 5855 5857 5858 5860
5771 5770 5769 5769 5769 5769 5770 5771 5772 5773 5775 5776 5778 5781 5784 5787 5790 5793 5796 5800 5804 5807 5811 5814 5818 5821 5825 5828 5831 5834 5837 5840 5842 5845 5847 5849 5851 5853
5769 5768 5767 5767 5766 5766 5765 5766 5766 5767 5768 5769 5771 5773 5776 5778 5781 5784 5787 5790 5793 5797 5800 5804 5807 5811 5814 5818 5821 5824 5827 5830 5833 5835 5838 5840 5842 5844
5768 5766 5765 5764 5763 5762 5762 5762 5761 5762 5762 5763 5764 5765 5767 5770 5772 5775 5777 5780 5783 5786 5790 5793 5796 5799 5803 5806 5810 5813 5817 5820 5823 5825 5828 5830 5832 5835
5766 5764 5763 5762 5761 5759 5758 5757 5757 5756 5757 5757 5758 5759 5760 5762 5764 5766 5768 5771 5773 5776 5779 5781 5784 5787 5790 5794 5798 5801 5804 5807 5810 5814 5816 5819 5821 5824
5764 5762 5761 5759 5758 5757 5755 5754 5753 5752 5752 5752 5752 5753 5754 5755 5757 5758 5760 5761 5764 5766 5768 5770 5772 5775 5778 5781 5784 5788 5791 5794 5798 5801 5804 5807 5809 5812
5762 5760 5759 5757 5756 5754 5752 5751 5750 5749 5748 5748 5747 5747 5748 5748 5749 5750 5752 5753 5755 5757 5758 5759 5761 5763 5765 5768 5771 5774 5777 5781 5784 5788 5791 5794 5796 5799
5760 5758 5757 5755 5753 5751 5750 5748 5747 5745 5744 5743 5742 5742 5742 5742 5743 5744 5744 5745 5747 5748 5749 5750 5750 5752 5754 5756 5758 5761 5764 5768 5771 5774 5778 5781 5783 5786
5758 5756 5754 5752 5750 5749 5747 5745 5744 5742 5741 5739 5738 5737 5737 5737 5737 5737 5737 5738 5739 5739 5740 5741 5741 5742 5743 5745 5747 5749 5752 5755 5758 5761 5764 5767 5770 5772
5755 5753 5751 5749 5748 5746 5744 5742 5741 5739 5737 5736 5734 5733 5732 5732 5731 5731 5731 5732 5732 5732 5732 5732 5732 5732 5733 5734 5736 5737 5740 5743 5745 5748 5751 5753 5756 5758
5752 5750 5748 5746 5744 5742 5741 5739 5737 5736 5734 5732 5731 5729 5728 5727 5727 5726 5726 5725 5725 5725 5724 5724 5724 5723 5724 5725 5726 5727 5728 5730 5733 5735 5738 5740 5742 5744
5748 5746 5745 5742 5740 5739 5737 5735 5733 5732 5730 5728 5727 5725 5724 5723 5722 5721 5720 5720 5719 5718 5718 5717 5716 5716 5716 5717 5716 5717 5718 5719 5721 5723 5726 5727 5729 5730
5745 5743 5741 5739 5737 5735 5733 5731 5729 5727 5725 5724 5722 5721 5720 5718 5717 5716 5715 5714 5713 5712 5711 5710 5709 5708 5708 5708 5708 5708 5708 5709 5710 5712 5714 5715 5716 5718
5740 5738 5736 5734 5732 5730 5728 5726 5724 5723 5721 5719 5718 5716 5715 5713 5712 5710 5709 5708 5707 5705 5704 5703 5702 5701 5700 5700 5700 5700 5700 5700 5700 5701 5702 5703 5704 5706
5735 5733 5731 5729 5727 5725 5723 5721 5719 5717 5715 5714 5712 5711 5709 5708 5706 5705 5703 5702 5700 5699 5697 5695 5694 5693 5693 5692 5691 5691 5691 5691 5691 5691 5691 5692 5693 5694
5730 5727 5725 5723 5721 5719 5717 5715 5713 5711 5709 5708 5706 5704 5703 5701 5699 5698 5696 5695 5693 5692 5690 5688 5687 5685 5684 5684 5683 5682 5681 5681 5681 5681 5681 5681 5682 5682
5723 5721 5719 5717 5714 5712 5710 5708 5706 5705 5703 5701 5699 5697 5696 5694 5692 5690 5689 5687 5686 5684 5682 5680 5679 5677 5676 5675 5674 5673 5672 5672 5671 5671 5670 5671 5671 5672
5717 5714 5712 5709 5707 5705 5703 5701 5699 5697 5695 5693 5691 5689 5688 5686 5684 5682 5681 5679 5677 5676 5674 5672 5670 5668 5667 5666 5665 5663 5662 5661 5661 5660 5660 5660 5661 5661
5709 5706 5704 5701 5699 5697 5694 5692 5690 5688 5686 5684 5682 5680 5678 5677 5675 5673 5671 5669 5668 5666 5664 5662 5660 5659 5657 5657 5656 5654 5652 5651 5650 5650 5650 5649 5650 5650
5700 5697 5695 5692 5690 5687 5685 5683 5681 5679 5677 5675 5673 5671 5668 5666 5664 5662 5661 5659 5657 5655 5653 5651 5649 5648 5646 5645 5645 5644 5642 5640 5639 5639 5638 5638 5638 5639
5690 5687 5685 5682 5680 5677 5675 5673 5670 5668 5666 5664 5662 5660 5657 5655 5653 5651 5649 5647 5645 5643 5641 5640 5638 5636 5634 5633 5632 5632 5631 5629 5628 5627 5627 5627 5626 5627
5680 5677 5674 5671 5669 5666 5664 5661 5659 5657 5654 5652 5650 5647 5645 5643 5640 5638 5636 5634 5631 5629 5628 5626 5624 5622 5621 5619 5618 5618 5617 5616 5615 5615 5615 5614 5614 5614